Home   Weather   Lucknow   Past weeks

Flag for India Past Weather in Lucknow, Uttar Pradesh, India — Yesterday and Last 2 Weeks

Now
88 °F

Haze.


Feels Like: 84 °F
Forecast: 78 / 104 °F
Wind: 3 mph from West

Location: Lucknow / Amausi

Current Time: Apr 25, 2017 at 10:11:05 pm

Latest Report: Apr 25, 2017 at 9:00 pm


Visibility: 2 mi

Pressure: 29.62 "Hg

Humidity: 21%

Dew Point: 43 °F

Location of LucknowLocation

Past Weather in Lucknow — Graph

°F

Lucknow Temperature Yesterday

Maximum temperature yesterday: 106 °F (at 3:30 pm)
Minimum temperature yesterday: 75 °F (at 4:00 am)
Average temperature yesterday: 92 °F

High & Low Weather Summary for the Past Weeks

 TemperatureHumidityPressure
High109 °F (Apr 15, 4:00 pm)89% (Apr 20, 5:00 am)29.80 "Hg (Apr 20, 5:00 am)
Low63 °F (Apr 11, 6:00 am)9% (Apr 25, 12:30 pm)29.47 "Hg (Apr 20, 4:00 pm)
Average91 °F43%29.63 "Hg
* Reported Apr 10 7:30 pm — Apr 25 8:00 pm, Lucknow, Weather by CustomWeather, © 2017

Note: Actual official high and low records may vary slightly from our data, if they occured in-between our weather recording intervals... More about our weather records

Advertising

Lucknow Weather History for the Previous 24 Hours

Scroll right to see more
 ConditionsComfort  
Time TempWeatherWind HumidityBarometerVisibility
8:00 pm
Tue, Apr 25
90 °FDuststorm.3 mph18%29.62 "Hg1 mi
7:30 pm91 °FDuststorm.3 mph17%29.59 "Hg1 mi
7:00 pm93 °FDuststorm.3 mph16%29.59 "Hg1 mi
6:30 pm97 °FDuststorm.3 mph13%29.59 "Hg1 mi
6:00 pm100 °FDuststorm.6 mph11%29.59 "Hg1 mi
5:30 pm102 °FDuststorm.6 mph11%29.56 "Hg1 mi
5:00 pm104 °FDuststorm.10 mph10%29.56 "Hg1 mi
4:30 pm106 °FLow level haze.16 mph10%29.56 "Hg1 mi
4:00 pm106 °FLow level haze.17 mph9%29.56 "Hg1 mi
3:00 pm106 °FLow level haze.23 mph13%29.59 "Hg1 mi
2:30 pm106 °FLow level haze.17 mph13%29.59 "Hg1 mi
2:00 pm106 °FLow level haze.17 mph13%29.62 "Hg2 mi
1:30 pm106 °FLow level haze.16 mph12%29.62 "Hg2 mi
1:00 pm106 °FDuststorm.12 mph11%29.65 "Hg2 mi
12:30 pm106 °FDuststorm.12 mph9%29.65 "Hg2 mi
12:00 pm104 °FDuststorm.12 mph10%29.65 "Hg2 mi
11:00 am102 °FDuststorm.7 mph13%29.68 "Hg2 mi
10:30 am100 °FDuststorm.9 mph18%29.68 "Hg2 mi
10:00 am99 °FHaze.6 mph27%29.68 "Hg2 mi
9:30 am95 °FHaze.7 mph30%29.68 "Hg2 mi
9:00 am93 °FHaze.6 mph32%29.68 "Hg2 mi
8:30 am91 °FHaze.6 mph32%29.65 "Hg2 mi
8:00 am90 °FHaze.5 mph33%29.65 "Hg2 mi
7:00 am84 °FScattered clouds.3 mph58%29.62 "Hg2 mi
6:30 am84 °FScattered clouds.3 mph43%29.62 "Hg2 mi
6:00 am81 °FPassing clouds.3 mph48%29.62 "Hg2 mi
5:30 am82 °FPassing clouds.No wind45%29.59 "Hg2 mi
5:00 am82 °FPassing clouds.No wind45%29.59 "Hg2 mi
4:00 am84 °FPassing clouds.No wind45%29.59 "Hg2 mi
3:00 am86 °FPassing clouds.No wind40%29.59 "Hg2 mi
2:00 am86 °FPassing clouds.12 mph40%29.62 "Hg2 mi
1:00 am88 °FPassing clouds.No wind43%29.59 "Hg2 mi
11:00 pm
Mon, Apr 24
90 °FPassing clouds.No wind46%29.62 "Hg2 mi
10:00 pm90 °FPassing clouds.No wind46%29.62 "Hg2 mi
Weather by CustomWeather, © 2017

See weather overviewHow to use our weather pages